Location: Felsheim
(48.7267°N, 10.7386°E)
Time: 13:06:03
(UTC+00:00)

Cosmos 2233 Rocket - Pass Details

Date: 09 April 2020
Orbit: 952 x 991 km, 82.9° (Epoch: 02 June)

Event Time Altitude Azimuth Distance (km) Brightness Sun altitude
Rises 23:40:11 0° 350° (N) 3,703 8.0 -33.0°
Reaches altitude 10° 23:42:43 10° 350° (N) 2,745 7.1 -33.0°
Enters shadow 23:47:59 64° 341° (NNW) 1,077 4.3 -32.9°
